Location: Clarion
(42.7316°N, 93.7330°W)
Time: 02:20:07
(UTC+00:00)

Cosmos 2333 Rocket - Pass Details

Date: 22 April 2026
Orbit: 841 x 861 km, 70.8° (Epoch: 20 May)

Event Time Altitude Azimuth Distance (km) Brightness Sun altitude
Rises 09:19:22 0° 325° (NW) 3,411 5.4 -20.5°
Reaches altitude 10° 09:22:04 10° 316° (NW) 2,474 4.6 -20.1°
Enters shadow 09:26:40 31° 262° (W) 1,454 3.0 -19.5°
